This is the latest recevied weather packets stored in our database for station/object KA1GJU-3. If no packets are shown the sender has not sent any weather packets the latest 1 day(s).
| Time | Temp. | Humidity | Pressure | Rain* | Wind** | Luminosity | Snow |
|---|---|---|---|---|---|---|---|
| 1836274287 | 12.78° C | 100% | 0 hPa | 0 mm | 0 m/s | - | - |
| 1836274139 | 12.22° C | 100% | 0 hPa | 0 mm | 0 m/s | - | - |
| 1778048656 | 17.22° C | 100% | 0 hPa | 0 mm | 2.24 m/s, 281° | - | - |
| 1778048056 | 17.22° C | 100% | 0 hPa | 0 mm | 2.68 m/s, 278° | - | - |
| 1778047625 | 17.22° C | 100% | 0 hPa | 0 mm | 2.24 m/s, 254° | - | - |
| 1778047456 | 17.22° C | 100% | 0 hPa | 0 mm | 2.24 m/s, 254° | - | - |
| 1778046856 | 17.78° C | 100% | 0 hPa | 0 mm | 2.68 m/s, 254° | - | - |
| 1778046256 | 17.22° C | 100% | 0 hPa | 0 mm | 3.13 m/s, 255° | - | - |
| 1778045656 | 17.22° C | 100% | 0 hPa | 0 mm | 1.79 m/s, 278° | - | - |
| 1778045056 | 17.78° C | 100% | 0 hPa | 0 mm | 2.24 m/s, 261° | - | - |
| 1778044456 | 17.22° C | 100% | 0 hPa | 0 mm | 3.58 m/s, 229° | - | - |
| 1778043856 | 17.22° C | 100% | 0 hPa | 0 mm | 0.89 m/s, 248° | - | - |
| 1778043256 | 17.22° C | 100% | 0 hPa | 0 mm | 2.68 m/s, 257° | - | - |
| 1778042656 | 17.22° C | 100% | 0 hPa | 0 mm | 2.68 m/s, 244° | - | - |
| 1778042056 | 17.22° C | 100% | 0 hPa | 0 mm | 1.34 m/s, 239° | - | - |
| 1778041456 | 17.22° C | 100% | 0 hPa | 0 mm | 2.24 m/s, 234° | - | - |
| 1778040856 | 17.78° C | 100% | 0 hPa | 0 mm | 2.68 m/s, 246° | - | - |
| 1778040256 | 17.22° C | 100% | 0 hPa | 0 mm | 1.79 m/s, 232° | - | - |
| 1778039656 | 17.78° C | 100% | 0 hPa | 0 mm | 2.68 m/s, 250° | - | - |
| 1778039056 | 17.78° C | 100% | 0 hPa | 0 mm | 2.68 m/s, 232° | - | - |
| 1778038456 | 17.78° C | 100% | 0 hPa | 0 mm | 1.34 m/s, 274° | - | - |
| 1778037856 | 18.33° C | 100% | 0 hPa | 0 mm | 4.47 m/s, 255° | - | - |
| 1778037256 | 18.33° C | 100% | 0 hPa | 0 mm | 3.58 m/s, 248° | - | - |
| 1778036656 | 18.33° C | 100% | 0 hPa | 0 mm | 2.68 m/s, 234° | - | - |
| 1778036056 | 18.33° C | 100% | 0 hPa | 0 mm | 3.58 m/s, 210° | - | - |
* Rain latest hour (hover to see other rain measurements)
** Current wind speed in m/s (hover to see current wind gust speed)